1511809200.47,54836,9.19,72962.3,-17.27,-51.85,-51.05,0,*67
1511809201.74,54837,9.19,72960.8,-17.29,-51.91,-51.11,0,*68
1511809203.01,54838,9.19,72962.8,-17.29,-51.55,-51.05,0,*6A
1511809204.27,54839,9.19,72962.5,-17.31,-51.55,-50.83,0,*6D
1511809205.49,54840,9.19,72960.5,-17.31,-51.77,-51.11,0,*69
1511809206.71,54841,9.19,72962.8,-17.31,-51.77,-50.97,0,*67
1511809207.95,54842,9.19,72960.3,-17.31,-51.55,-50.97,0,*64
1511809209.19,54843,9.19,72960.8,-17.31,-51.77,-51.25,0,*6D
1511809210.44,54844,9.19,72960.3,-17.33,-51.77,-51.11,0,*6F
1511809211.68,54845,9.19,72962.8,-17.31,-51.91,-51.11,0,*64
1511809212.9,54846,9.19,72960.0,-17.31,-51.77,-51.11,0,*6F
1511809214.17,54847,9.19,72962.3,-17.33,-51.77,-51.33,0,*6C
1511809215.39,54848,9.19,72958.8,-17.31,-51.77,-51.11,0,*61
1511809216.61,54849,9.19,72960.8,-17.31,-51.77,-51.11,0,*60
1511809217.86,54850,9.19,72960.5,-17.33,-51.77,-51.11,0,*6A
1511809219.1,54851,9.19,72964.0,-17.33,-51.85,-51.11,0,*66
1511809220.37,54852,9.19,72964.0,-17.31,-51.47,-50.83,0,*63
1511809221.61,54853,9.25,72962.8,-17.31,-51.47,-50.97,0,*67
1511809222.85,54854,9.19,72960.0,-17.31,-51.55,-50.97,0,*63
1511809224.12,54855,9.25,72962.8,-17.33,-51.77,-51.33,0,*6F
1511809225.36,54856,9.19,72960.0,-17.33,-51.85,-51.11,0,*61
1511809226.6,54857,9.19,72960.0,-17.31,-51.55,-51.11,0,*6F
1511809227.84,54858,9.19,72962.0,-17.33,-51.77,-51.11,0,*62
1511809229.1,54859,9.19,72960.0,-17.33,-51.33,-50.67,0,*63
1511809230.34,54860,9.19,72960.0,-17.31,-51.05,-50.33,0,*6F
1511809231.6,54861,9.19,72960.3,-17.31,-50.83,-50.17,0,*67
1511809232.85,54862,9.19,72960.5,-17.31,-51.47,-50.75,0,*69
1511809234.07,54863,9.19,72960.3,-17.31,-51.69,-51.05,0,*62
1511809235.29,54864,9.19,72960.5,-17.31,-51.69,-51.11,0,*60
1511809236.56,54865,9.19,72962.8,-17.31,-51.47,-50.83,0,*67
1511809237.8,54866,9.19,72962.3,-17.33,-51.77,-51.19,0,*67
1511809239.07,54867,9.19,72960.8,-17.31,-51.99,-51.33,0,*6C
1511809240.33,54868,9.19,72956.8,-17.31,-51.99,-51.33,0,*63
1511809241.58,54869,9.19,72962.3,-17.31,-51.91,-51.11,0,*6A
1511809242.85,54870,9.19,72962.5,-17.33,-51.77,-51.33,0,*68
1511809244.12,54871,9.19,72960.5,-17.33,-51.63,-51.05,0,*69
1511809245.34,54872,9.19,72962.8,-17.31,-51.69,-51.05,0,*62
1511809246.61,54873,9.19,72962.8,-17.33,-51.63,-51.19,0,*66
1511809247.83,54874,9.19,72956.0,-17.31,-51.77,-51.11,0,*6E
1511809249.04,54875,9.25,72964.5,-17.35,-52.07,-51.41,0,*6A
1511809250.29,54876,9.19,72958.8,-17.35,-51.63,-51.05,0,*68
1511809251.53,54877,9.19,72960.0,-17.33,-51.77,-51.19,0,*67
1511809252.75,54878,9.19,72956.8,-17.31,-51.77,-51.11,0,*62
1511809254.04,54879,9.19,72958.5,-17.33,-51.99,-51.33,0,*61
1511809255.31,54880,9.19,72962.8,-17.33,-51.41,-50.83,0,*68
1511809256.55,54881,9.19,72956.0,-17.33,-51.85,-51.19,0,*63
1511809257.81,54882,9.19,72962.5,-17.33,-51.99,-51.41,0,*60
1511809259.07,54883,9.19,72960.8,-17.33,-52.07,-51.33,0,*60
1511809260.34,54884,9.19,72958.8,-17.33,-51.63,-51.05,0,*63
1511809261.58,54885,9.19,72960.5,-17.35,-51.33,-50.47,0,*66
1511809262.83,54886,9.19,72958.5,-17.33,-51.55,-50.89,0,*61
1511809264.12,54887,9.19,72962.8,-17.33,-51.55,-50.83,0,*6A
1511809265.4,54888,9.19,72958.0,-17.33,-51.33,-50.83,0,*65
1511809266.66,54889,9.19,72960.0,-17.33,-51.55,-50.89,0,*6E
1511809267.93,54890,9.19,72958.5,-17.33,-51.55,-51.05,0,*63
1511809269.19,54891,9.19,72960.8,-17.33,-51.63,-50.89,0,*62
1511809270.41,54892,9.19,72958.3,-17.35,-51.77,-51.11,0,*62
1511809271.68,54893,9.19,72956.5,-17.33,-51.63,-51.11,0,*60
1511809272.95,54894,9.19,72960.3,-17.33,-51.63,-50.89,0,*67
1511809274.18,54895,9.19,72956.5,-17.33,-51.41,-50.89,0,*66
1511809275.45,54896,9.19,72960.3,-17.33,-51.63,-50.89,0,*65
1511809276.72,54897,9.19,72958.3,-17.33,-51.63,-51.05,0,*61
1511809277.96,54898,9.19,72962.0,-17.35,-51.63,-51.19,0,*65
1511809279.21,54899,9.19,72958.0,-17.33,-51.77,-51.19,0,*67
1511809280.45,54900,9.19,72956.8,-17.35,-51.63,-51.11,0,*6D
1511809281.7,54901,9.19,72960.0,-17.35,-51.63,-51.19,0,*64
1511809282.94,54902,9.19,72962.3,-17.35,-51.85,-51.33,0,*67
1511809284.19,54903,9.19,72958.5,-17.35,-51.63,-51.05,0,*6B
1511809285.41,54904,9.19,72958.3,-17.35,-51.77,-51.05,0,*69
1511809286.65,54905,9.19,72958.8,-17.35,-51.63,-51.05,0,*6D
1511809287.87,54906,9.19,72956.8,-17.35,-51.85,-51.19,0,*6B
1511809289.11,54907,9.19,72960.0,-17.35,-51.55,-50.89,0,*6F
1511809290.32,54908,9.19,72958.3,-17.35,-51.41,-50.89,0,*65
1511809291.55,54909,9.19,72956.0,-17.35,-51.55,-50.89,0,*61
1511809292.79,54910,9.19,72956.5,-17.35,-51.55,-50.89,0,*69
1511809294.03,54911,9.19,72960.5,-17.35,-51.63,-51.05,0,*68
1511809295.27,54912,9.19,72956.5,-17.35,-51.99,-51.19,0,*63
1511809296.49,54913,9.19,72958.8,-17.35,-51.77,-51.05,0,*6F
1511809297.76,54914,9.19,72958.8,-17.37,-51.85,-51.25,0,*65
1511809298.98,54915,9.19,72958.8,-17.35,-51.85,-51.41,0,*64
1511809300.21,54916,9.19,72960.3,-17.35,-51.55,-50.89,0,*6F
1511809301.47,54917,9.19,72958.8,-17.35,-51.55,-50.83,0,*64
1511809302.71,54918,9.19,72956.8,-17.35,-51.55,-51.05,0,*64
1511809303.93,54919,9.19,72956.3,-17.35,-51.77,-51.11,0,*60
1511809305.15,54920,9.19,72958.8,-17.35,-51.77,-51.11,0,*6A
1511809306.37,54921,9.19,72958.5,-17.35,-51.77,-51.11,0,*6B
1511809307.59,54922,9.25,72962.3,-17.35,-51.77,-51.19,0,*60
1511809308.81,54923,9.19,72962.5,-17.35,-51.77,-51.11,0,*69
1511809310.06,54924,9.19,72958.3,-17.35,-51.63,-51.05,0,*6E
1511809311.33,54925,9.19,72958.8,-17.37,-51.63,-50.97,0,*67
1511809312.54,54926,9.19,72960.8,-17.35,-51.41,-50.89,0,*69
1511809313.75,54927,9.19,72962.0,-17.35,-50.39,-49.67,0,*6E
1511809314.97,54928,9.19,72962.0,-17.35,-51.19,-50.67,0,*6A
1511809316.21,54929,9.19,72956.0,-17.35,-51.55,-51.05,0,*66
1511809317.45,54930,9.19,72960.3,-17.35,-51.55,-50.89,0,*6B
1511809318.68,54931,9.19,72958.5,-17.33,-51.11,-50.47,0,*6E
1511809319.94,54932,9.19,72958.5,-17.33,-51.33,-50.67,0,*6F
1511809321.21,54933,9.19,72958.5,-17.33,-51.19,-50.61,0,*60
1511809322.47,54934,9.19,72960.0,-17.33,-51.55,-50.89,0,*69
1511809323.73,54935,9.19,72960.0,-17.33,-51.63,-50.89,0,*6D
1511809324.97,54936,9.19,72958.5,-17.33,-51.19,-50.47,0,*61
1511809326.24,54937,9.19,72960.0,-17.33,-51.41,-50.83,0,*65
1511809327.48,54938,9.19,72956.8,-17.33,-51.77,-51.05,0,*60
1511809328.72,54939,9.19,72958.8,-17.33,-51.11,-50.67,0,*64
1511809329.98,54940,9.19,72960.0,-17.33,-51.55,-50.89,0,*6A
1511809331.25,54941,9.19,72960.5,-17.33,-51.63,-51.11,0,*6E
1511809332.51,54942,9.19,72958.8,-17.33,-51.41,-50.83,0,*67
1511809333.77,54943,9.19,72962.8,-17.33,-51.63,-50.89,0,*6C
1511809335.04,54944,9.19,72956.8,-17.33,-51.63,-50.89,0,*6B
1511809336.31,54945,9.19,72960.3,-17.33,-51.63,-51.05,0,*6F
1511809337.55,54946,9.19,72960.5,-17.33,-51.77,-51.19,0,*64
1511809338.8,54947,9.19,72956.3,-17.33,-51.77,-51.11,0,*6D
1511809340.03,54948,9.19,72956.0,-17.31,-51.55,-50.97,0,*6F
1511809341.28,54949,9.19,72956.8,-17.33,-51.77,-51.19,0,*6B
1511809342.57,54950,9.19,72962.5,-17.33,-51.99,-51.33,0,*6B
1511809343.81,54951,9.19,72960.0,-17.35,-51.63,-51.05,0,*6C
1511809345.03,54952,9.19,72958.3,-17.35,-51.77,-51.19,0,*67
1511809346.28,54953,9.19,72958.3,-17.35,-51.85,-51.33,0,*63
1511809347.49,54954,9.19,72960.0,-17.35,-51.85,-51.11,0,*64
1511809348.74,54955,9.19,72958.5,-17.35,-51.63,-51.11,0,*6D
1511809349.98,54956,9.19,72962.3,-17.35,-51.63,-50.89,0,*6E
1511809351.23,54957,9.19,72958.8,-17.35,-51.63,-51.05,0,*6A
1511809352.47,54958,9.19,72958.3,-17.37,-51.69,-50.97,0,*67
1511809353.69,54959,9.19,72958.3,-17.35,-51.77,-51.11,0,*64
1511809354.93,54960,9.19,72958.5,-17.35,-51.55,-51.05,0,*6B
1511809356.18,54961,9.19,72960.8,-17.37,-51.69,-51.11,0,*62
1511809357.41,54962,9.19,72956.3,-17.35,-51.55,-50.89,0,*6C
1511809358.66,54963,9.19,72956.8,-17.37,-51.69,-51.11,0,*60
1511809359.9,54964,9.19,72956.5,-17.37,-51.69,-51.11,0,*67
1511809361.15,54965,9.19,72962.3,-17.35,-51.63,-51.05,0,*6B
1511809362.37,54966,9.19,72960.3,-17.35,-51.77,-51.19,0,*60
1511809363.59,54967,9.19,72960.3,-17.35,-51.77,-51.19,0,*61
1511809364.83,54968,9.19,72958.5,-17.35,-51.63,-51.11,0,*63
1511809366.1,54969,9.19,72958.0,-17.37,-51.85,-51.25,0,*6F
1511809367.32,54970,9.19,72958.0,-17.35,-51.77,-51.19,0,*67
1511809368.57,54971,9.19,72956.3,-17.37,-51.69,-51.19,0,*6B
1511809369.87,54972,9.19,72960.8,-17.37,-51.91,-51.25,0,*60
1511809371.11,54973,9.19,72962.5,-17.37,-51.69,-51.11,0,*61
1511809372.36,54974,9.19,72958.5,-17.35,-51.63,-51.19,0,*66
1511809373.63,54975,9.19,72960.5,-17.37,-51.63,-51.11,0,*6D
1511809374.86,54976,9.19,72958.0,-17.37,-51.41,-50.75,0,*6D
1511809376.13,54977,9.19,72958.0,-17.37,-51.63,-50.97,0,*60
1511809377.43,54978,9.19,72958.3,-17.37,-51.91,-51.25,0,*6A
1511809378.67,54979,9.19,72958.8,-17.37,-51.85,-51.19,0,*61
1511809379.89,54980,9.19,72960.5,-17.35,-51.77,-51.19,0,*68
1511809381.19,54981,9.19,72958.3,-17.37,-51.91,-51.25,0,*6C
1511809382.48,54982,9.19,72956.5,-17.37,-51.91,-51.47,0,*6B
1511809383.75,54983,9.19,72956.0,-17.37,-51.85,-51.25,0,*6B
1511809385.02,54984,9.19,72956.8,-17.37,-51.85,-51.47,0,*68
1511809386.31,54985,9.19,72958.3,-17.37,-51.91,-51.47,0,*6C
1511809387.56,54986,9.19,72960.8,-17.39,-51.85,-51.25,0,*60
1511809388.84,54987,9.19,72958.3,-17.39,-51.91,-51.25,0,*64
1511809390.08,54988,9.19,72956.5,-17.39,-51.91,-51.41,0,*69
1511809391.32,54989,9.19,72962.0,-17.39,-51.63,-51.19,0,*68
1511809392.57,54990,9.19,72956.8,-17.39,-51.47,-50.97,0,*61
1511809393.82,54991,9.19,72962.0,-17.39,-51.63,-51.11,0,*69
1511809395.06,54992,9.19,72960.5,-17.39,-51.63,-50.89,0,*6A
1511809396.29,54993,9.19,72962.5,-17.43,-51.69,-50.97,0,*63
1511809397.5,54994,9.19,72958.3,-17.39,-51.85,-51.19,0,*6C
1511809398.72,54995,9.19,72960.0,-17.39,-51.69,-50.97,0,*68
1511809399.97,54996,9.19,72960.5,-17.39,-51.63,-51.11,0,*6E
1511809401.21,54997,9.19,72956.8,-17.39,-51.91,-51.41,0,*67
1511809402.46,54998,9.19,72960.3,-17.39,-51.91,-51.41,0,*68
1511809403.67,54999,9.19,72960.8,-17.39,-51.85,-51.11,0,*69
1511809404.89,55000,9.19,72962.3,-17.39,-51.69,-51.11,0,*63
1511809406.14,55001,9.19,72956.3,-17.39,-51.63,-50.97,0,*67
1511809407.39,55002,9.19,72956.0,-17.39,-51.63,-51.11,0,*6B
1511809408.67,55003,9.19,72958.5,-17.43,-51.91,-51.25,0,*6D
1511809409.95,55004,9.19,72960.3,-17.43,-51.91,-51.33,0,*6D
1511809411.17,55005,9.19,72962.5,-17.39,-51.69,-51.11,0,*66
1511809412.42,55006,9.19,72956.8,-17.39,-51.85,-51.25,0,*60
1511809413.67,55007,9.19,72962.0,-17.39,-51.69,-51.25,0,*63
1511809414.91,55008,9.19,72960.8,-17.39,-51.47,-50.97,0,*68
1511809416.13,55009,9.19,72956.5,-17.39,-51.85,-51.19,0,*60
1511809417.38,55010,9.19,72960.0,-17.43,-51.77,-51.33,0,*60
1511809418.63,55011,9.19,72960.0,-17.39,-51.63,-50.97,0,*66
1511809419.87,55012,9.19,72956.5,-17.43,-51.33,-50.97,0,*6D
1511809421.12,55013,9.19,72958.3,-17.43,-51.55,-50.97,0,*6C
1511809422.4,55014,9.19,72958.0,-17.43,-51.91,-51.25,0,*6B
1511809423.62,55015,9.19,72960.8,-17.43,-51.77,-51.19,0,*6D
1511809424.91,55016,9.19,72958.5,-17.43,-51.91,-51.25,0,*69
1511809426.19,55017,9.19,72958.0,-17.43,-51.91,-51.33,0,*6F
1511809427.46,55018,9.19,72958.8,-17.43,-52.13,-51.47,0,*6A
1511809428.7,55019,9.19,72960.0,-17.39,-51.47,-50.89,0,*67
1511809429.97,55020,9.19,72960.8,-17.37,-51.63,-50.97,0,*6A
1511809431.19,55021,9.19,72956.0,-17.39,-51.77,-51.05,0,*6A
1511809432.43,55022,9.19,72958.5,-17.39,-51.19,-50.53,0,*63
1511809433.67,55023,9.19,72958.5,-17.39,-51.47,-50.89,0,*6E
1511809434.95,55024,9.19,72958.8,-17.39,-51.63,-51.25,0,*68
1511809436.2,55025,9.19,72960.3,-17.39,-51.69,-51.25,0,*63
1511809437.48,55026,9.19,72958.3,-17.43,-51.91,-51.47,0,*6E
1511809438.72,55027,9.19,72958.3,-17.39,-51.91,-51.41,0,*64
1511809439.99,55028,9.19,72958.0,-17.43,-52.13,-51.55,0,*6A
1511809441.22,55029,9.19,72960.8,-17.43,-51.77,-51.05,0,*6F
1511809442.49,55030,9.19,72960.3,-17.43,-51.99,-51.33,0,*62
1511809443.75,55031,9.19,72962.5,-17.43,-51.77,-51.25,0,*64
1511809444.97,55032,9.19,72960.3,-17.39,-51.69,-51.19,0,*6A
1511809446.22,55033,9.19,72960.3,-17.39,-51.69,-51.25,0,*64
1511809447.5,55034,9.19,72956.3,-17.43,-51.91,-51.25,0,*69
1511809448.73,55035,9.19,72958.3,-17.43,-51.77,-51.05,0,*62
1511809450.0,55036,9.19,72962.5,-17.43,-51.99,-51.47,0,*67
1511809451.29,55037,9.19,72956.3,-17.45,-51.99,-51.47,0,*60
1511809452.54,55038,9.19,72962.0,-17.43,-51.77,-51.33,0,*6A
1511809453.82,55039,9.19,72960.0,-17.43,-51.91,-51.33,0,*63
1511809455.09,55040,9.19,72958.3,-17.43,-51.99,-51.47,0,*66
1511809456.39,55041,9.19,72956.0,-17.45,-52.13,-51.55,0,*63
1511809457.63,55042,9.19,72958.3,-17.45,-51.77,-51.19,0,*69
1511809458.92,55043,9.19,72958.0,-17.45,-51.99,-51.55,0,*60
1511809460.18,55044,9.19,72958.0,-17.47,-51.99,-51.33,0,*65
1511809461.48,55045,9.19,72956.3,-17.45,-52.13,-51.47,0,*64
1511809462.7,55046,9.19,72958.0,-17.47,-52.07,-51.41,0,*66
1511809463.99,55047,9.19,72958.8,-17.45,-51.91,-51.33,0,*6C
1511809465.24,55048,9.19,72958.8,-17.45,-51.77,-51.19,0,*63
1511809466.52,55049,9.19,72956.5,-17.47,-51.91,-51.25,0,*67
1511809467.76,55050,9.19,72958.3,-17.45,-51.77,-51.19,0,*6A
1511809469.06,55051,9.19,72960.5,-17.45,-51.91,-51.33,0,*6B
1511809470.3,55052,9.19,72958.0,-17.47,-51.85,-51.33,0,*6F
1511809471.58,55053,9.19,72956.3,-17.45,-51.77,-51.25,0,*66
1511809472.83,55054,9.19,72960.8,-17.45,-51.69,-51.05,0,*6C
1511809474.1,55055,9.19,72958.3,-17.45,-51.47,-50.97,0,*6B
1511809475.35,55056,9.19,72956.3,-17.47,-51.77,-51.33,0,*66
1511809476.6,55057,9.19,72958.0,-17.45,-51.69,-51.19,0,*62
1511809477.82,55058,9.19,72958.0,-17.47,-51.69,-51.05,0,*62
1511809479.08,55059,9.19,72956.3,-17.45,-51.55,-50.97,0,*64
1511809480.33,55060,9.19,72958.5,-17.47,-51.63,-50.89,0,*66
1511809481.55,55061,9.19,72958.5,-17.47,-51.77,-51.11,0,*62
1511809482.79,55062,9.19,72954.5,-17.47,-51.85,-51.25,0,*6B
1511809484.04,55063,9.19,72962.0,-17.45,-51.77,-51.19,0,*6A
1511809485.3,55064,9.19,72958.0,-17.45,-51.55,-50.97,0,*6A
1511809486.55,55065,9.19,72960.5,-17.47,-51.11,-50.61,0,*60
1511809487.83,55066,9.19,72956.3,-17.45,-51.69,-51.25,0,*6F
1511809489.07,55067,9.19,72956.5,-17.47,-51.85,-51.25,0,*6E
1511809490.32,55068,9.19,72958.8,-17.43,-51.55,-50.97,0,*60
1511809491.56,55069,9.19,72956.3,-17.47,-51.99,-51.41,0,*6F
1511809492.79,55070,9.19,72958.8,-17.47,-52.07,-51.55,0,*66
1511809494.03,55071,9.19,72954.5,-17.47,-52.07,-51.55,0,*67
1511809495.28,55072,9.19,72956.3,-17.47,-51.85,-51.33,0,*6D
1511809496.52,55073,9.19,72956.8,-17.47,-51.85,-51.25,0,*6B
1511809497.77,55074,9.19,72958.0,-17.47,-51.85,-51.25,0,*6C
1511809499.02,55075,9.19,72956.5,-17.47,-51.85,-51.25,0,*6D
1511809500.26,55076,9.19,72958.5,-17.47,-51.85,-51.33,0,*69
1511809501.5,55077,9.19,72958.0,-17.49,-51.55,-51.05,0,*6E
1511809502.72,55078,9.19,72956.5,-17.47,-51.77,-51.11,0,*6A
1511809503.97,55079,9.19,72952.3,-17.47,-51.77,-51.25,0,*6C
1511809505.19,55080,9.19,72954.5,-17.47,-51.77,-51.11,0,*6D
1511809506.44,55081,9.19,72954.8,-17.47,-51.63,-51.11,0,*69
1511809507.68,55082,9.19,72956.3,-17.49,-51.99,-51.41,0,*64
1511809508.95,55083,9.19,72954.8,-17.49,-51.99,-51.33,0,*60
1511809510.17,55084,9.19,72958.3,-17.49,-51.85,-51.11,0,*6A
1511809511.41,55085,9.19,72956.5,-17.49,-51.63,-51.11,0,*63
1511809512.67,55086,9.19,72952.3,-17.49,-51.77,-51.25,0,*62
1511809513.92,55087,9.19,72958.3,-17.47,-51.77,-51.25,0,*6D
1511809515.16,55088,9.19,72956.0,-17.49,-51.85,-51.33,0,*66
1511809516.41,55089,9.19,72958.8,-17.49,-51.85,-51.33,0,*67
1511809517.65,55090,9.19,72954.8,-17.49,-51.25,-50.89,0,*65
1511809518.9,55091,9.19,72958.5,-17.49,-51.77,-51.25,0,*64
1511809520.11,55092,9.19,72958.3,-17.47,-51.41,-50.89,0,*6B
1511809521.36,55093,9.19,72958.5,-17.49,-51.63,-51.05,0,*61
1511809522.61,55094,9.19,72954.8,-17.49,-51.77,-51.25,0,*61
1511809523.86,55095,9.19,72958.3,-17.49,-51.63,-51.05,0,*67
1511809525.13,55096,9.19,72954.8,-17.49,-51.25,-50.61,0,*65
1511809526.37,55097,9.19,72954.8,-17.49,-51.55,-51.05,0,*60
1511809527.61,55098,9.19,72954.5,-17.49,-51.85,-51.33,0,*67
1511809528.86,55099,9.19,72956.3,-17.49,-51.85,-51.25,0,*61
1511809530.08,55100,9.19,72956.5,-17.49,-51.77,-51.05,0,*6F
1511809531.33,55101,9.19,72958.8,-17.49,-51.63,-51.11,0,*6E
1511809532.58,55102,9.19,72956.0,-17.49,-51.63,-51.11,0,*6D
1511809533.82,55103,9.19,72954.0,-17.49,-51.55,-51.05,0,*6C
1511809535.07,55104,9.19,72954.8,-17.49,-51.63,-51.05,0,*6E
1511809536.34,55105,9.19,72958.8,-17.49,-51.63,-50.83,0,*60
1511809537.57,55106,9.19,72956.5,-17.47,-51.55,-50.89,0,*62
1511809538.79,55107,9.19,72952.8,-17.47,-51.41,-50.67,0,*66
1511809540.05,55108,9.19,72954.3,-17.45,-51.33,-50.75,0,*6D
1511809541.26,55109,9.19,72952.3,-17.47,-51.05,-50.39,0,*63
1511809542.51,55110,9.19,72956.5,-17.47,-51.11,-50.61,0,*63
1511809543.73,55111,9.19,72958.0,-17.47,-51.77,-51.05,0,*61
1511809544.94,55112,9.19,72958.3,-17.47,-51.77,-51.11,0,*67
1511809546.19,55113,9.19,72958.3,-17.47,-51.25,-50.67,0,*61
1511809547.42,55114,9.19,72958.0,-17.45,-50.97,-50.39,0,*67
1511809548.69,55115,9.19,72956.3,-17.47,-51.25,-50.83,0,*6D
1511809549.94,55116,9.19,72956.8,-17.47,-51.85,-51.25,0,*69
1511809551.18,55117,9.19,72956.8,-17.47,-51.85,-51.33,0,*6F
1511809552.43,55118,9.19,72956.0,-17.47,-51.63,-51.05,0,*6D
1511809553.67,55119,9.19,72956.0,-17.47,-51.55,-50.89,0,*6C
1511809554.9,55120,9.19,72954.8,-17.47,-51.41,-50.83,0,*69
1511809556.15,55121,9.19,72958.5,-17.45,-51.69,-51.05,0,*6F
1511809557.4,55122,9.19,72956.5,-17.47,-51.85,-51.25,0,*6E
1511809558.67,55123,9.19,72954.3,-17.47,-51.99,-51.25,0,*62
1511809559.94,55124,9.19,72954.8,-17.47,-51.99,-51.33,0,*62
1511809561.18,55125,9.19,72958.0,-17.47,-51.85,-51.33,0,*6E
1511809562.43,55126,9.19,72956.8,-17.49,-51.63,-51.11,0,*6B
1511809563.68,55127,9.19,72952.8,-17.49,-51.77,-51.25,0,*68
1511809564.9,55128,9.19,72954.5,-17.49,-51.85,-51.11,0,*6D
1511809566.11,55129,9.19,72956.5,-17.47,-51.41,-51.05,0,*6F
1511809567.33,55130,9.19,72958.8,-17.47,-51.77,-51.11,0,*67
1511809568.59,55131,9.19,72958.5,-17.47,-51.33,-50.83,0,*6C
1511809569.84,55132,9.19,72956.0,-17.47,-51.63,-51.05,0,*65
1511809571.08,55133,9.19,72958.3,-17.47,-51.33,-50.67,0,*64
1511809572.29,55134,9.19,72956.8,-17.47,-51.05,-50.47,0,*64
1511809573.58,55135,9.19,72956.3,-17.45,-51.47,-50.83,0,*69
1511809574.83,55136,9.19,72954.5,-17.47,-51.77,-51.25,0,*66
1511809576.08,55137,9.19,72956.8,-17.45,-51.69,-51.05,0,*68
1511809577.29,55138,9.19,72958.3,-17.47,-51.05,-50.47,0,*68
1511809578.53,55139,9.19,72958.3,-17.47,-51.25,-50.67,0,*69
1511809579.77,55140,9.19,72954.5,-17.47,-51.05,-50.25,0,*63
1511809581.01,55141,9.19,72958.0,-17.47,-51.11,-50.61,0,*67
1511809582.28,55142,9.19,72958.0,-17.45,-51.25,-50.75,0,*64
1511809583.52,55143,9.19,72958.8,-17.45,-51.19,-50.75,0,*6A
1511809584.76,55144,9.19,72958.3,-17.45,-51.05,-50.39,0,*68
1511809586.02,55145,9.19,72954.5,-17.45,-51.05,-50.33,0,*63
1511809587.27,55146,9.19,72958.0,-17.47,-51.63,-51.05,0,*66
1511809588.54,55147,9.19,72956.3,-17.45,-51.55,-51.05,0,*60
1511809589.78,55148,9.19,72954.5,-17.39,-51.63,-51.11,0,*64
1511809591.01,55149,9.19,72958.5,-17.43,-51.69,-51.19,0,*6A
1511809592.26,55150,9.19,72958.5,-17.45,-51.69,-51.05,0,*69
1511809593.5,55151,9.19,72952.5,-17.45,-51.77,-51.19,0,*6A
1511809594.8,55152,9.19,72956.8,-17.45,-51.47,-50.83,0,*68
1511809596.06,55153,9.19,72956.0,-17.45,-51.55,-51.05,0,*65
1511809597.33,55154,9.19,72954.8,-17.45,-51.47,-51.05,0,*61
1511809598.58,55155,9.19,72958.5,-17.45,-51.69,-51.19,0,*61
1511809599.88,55156,9.19,72958.0,-17.45,-51.91,-51.25,0,*6A
1511809601.13,55157,9.19,72956.3,-17.47,-51.85,-51.25,0,*6C
1511809602.37,55158,9.19,72958.3,-17.47,-51.55,-50.89,0,*69
1511809603.6,55159,9.19,72954.8,-17.47,-51.55,-50.89,0,*68
1511809604.89,55160,9.19,72956.0,-17.45,-51.33,-50.83,0,*6A
1511809606.13,55161,9.19,72958.3,-17.47,-51.41,-50.61,0,*60
1511809607.4,55162,9.19,72956.8,-17.45,-51.55,-50.97,0,*6D
1511809608.64,55163,9.19,72952.0,-17.47,-51.41,-50.83,0,*6E
1511809609.9,55164,9.19,72954.8,-17.45,-51.33,-50.75,0,*67
1511809611.16,55165,9.19,72956.0,-17.45,-51.33,-50.75,0,*66
1511809612.46,55166,9.19,72954.8,-17.45,-51.47,-50.83,0,*6F
1511809613.72,55167,9.19,72954.0,-17.45,-51.33,-50.97,0,*68
1511809614.97,55168,9.19,72956.5,-17.45,-51.69,-51.05,0,*62
1511809616.21,55169,9.19,72954.5,-17.47,-51.63,-51.11,0,*6E
1511809617.5,55170,9.19,72958.3,-17.45,-51.33,-50.83,0,*6B
1511809618.75,55171,9.19,72952.0,-17.45,-51.69,-50.97,0,*60
1511809619.99,55172,9.19,72954.0,-17.45,-51.77,-51.19,0,*6B
1511809621.22,55173,9.19,72954.8,-17.47,-51.77,-51.11,0,*60
1511809622.44,55174,9.19,72954.0,-17.47,-51.77,-51.11,0,*67
1511809623.68,55175,9.19,72956.8,-17.45,-51.69,-51.05,0,*6E
1511809624.93,55176,9.19,72954.0,-17.47,-51.85,-51.25,0,*6F
1511809626.18,55177,9.19,72954.3,-17.47,-51.63,-51.11,0,*61
1511809627.42,55178,9.19,72952.5,-17.45,-51.69,-51.19,0,*6E
1511809628.67,55179,9.19,72954.8,-17.45,-51.69,-51.11,0,*67
1511809629.92,55180,9.19,72954.8,-17.47,-51.77,-51.25,0,*6B
1511809631.17,55181,9.19,72958.0,-17.47,-51.77,-51.33,0,*6D
1511809632.46,55182,9.19,72954.8,-17.45,-51.33,-50.61,0,*6A
1511809633.75,55183,9.19,72954.0,-17.45,-51.47,-50.83,0,*64
1511809635.01,55184,9.19,72954.8,-17.47,-51.77,-51.25,0,*6F
1511809636.3,55185,9.19,72954.0,-17.45,-51.25,-50.53,0,*6B
1511809637.54,55186,9.19,72952.8,-17.45,-51.05,-50.39,0,*66
1511809638.81,55187,9.19,72956.3,-17.45,-51.47,-50.97,0,*65
1511809640.07,55188,9.19,72958.8,-17.45,-51.55,-50.97,0,*69
1511809641.29,55189,9.19,72954.0,-17.47,-51.77,-51.11,0,*65
1511809642.54,55190,9.19,72958.3,-17.47,-51.77,-51.25,0,*6A
1511809643.79,55191,9.19,72950.8,-17.45,-51.77,-51.05,0,*6B
1511809645.04,55192,9.19,72954.3,-17.47,-51.63,-51.05,0,*6F
1511809646.25,55193,9.19,72954.0,-17.47,-51.77,-51.11,0,*6E
1511809647.5,55194,9.19,72952.3,-17.47,-51.63,-51.05,0,*69
1511809648.77,55195,9.19,72954.3,-17.45,-51.33,-50.97,0,*65
1511809650.01,55196,9.19,72956.0,-17.47,-51.47,-50.89,0,*68
1511809651.27,55197,9.19,72954.8,-17.45,-51.55,-50.97,0,*67
1511809652.51,55198,9.19,72952.3,-17.45,-51.05,-50.39,0,*69
1511809653.78,55199,9.19,72952.3,-17.45,-50.75,-50.17,0,*62
1511809655.01,55200,9.19,72954.5,-17.43,-51.69,-51.19,0,*64
1511809656.27,55201,9.19,72952.8,-17.45,-51.55,-50.97,0,*6B
1511809657.56,55202,9.19,72954.8,-17.45,-51.33,-50.83,0,*6D
1511809658.82,55203,9.19,72952.3,-17.45,-51.55,-51.05,0,*63
1511809660.11,55204,9.19,72954.5,-17.45,-51.33,-50.83,0,*6B
1511809661.38,55205,9.19,72954.0,-17.45,-51.55,-50.97,0,*6F
1511809662.62,55206,9.13,72952.0,-17.45,-51.69,-51.05,0,*69
1511809663.84,55207,9.19,72952.8,-17.47,-51.77,-51.11,0,*60
1511809665.1,55208,9.19,72950.8,-17.43,-51.77,-51.25,0,*6C
1511809666.4,55209,9.19,72952.5,-17.45,-51.47,-50.83,0,*65
1511809667.66,55210,9.19,72952.5,-17.45,-51.33,-50.75,0,*67
1511809668.9,55211,9.19,72952.3,-17.47,-51.25,-50.47,0,*62
1511809670.14,55212,9.19,72954.0,-17.45,-51.05,-50.39,0,*68
1511809671.4,55213,9.19,72952.8,-17.45,-51.55,-51.05,0,*62
1511809672.65,55214,9.19,72952.5,-17.45,-51.69,-51.19,0,*67
1511809673.9,55215,9.19,72954.0,-17.45,-51.69,-51.05,0,*6B
1511809675.14,55216,9.19,72952.8,-17.45,-51.77,-51.19,0,*6A
1511809676.42,55217,9.19,72954.8,-17.45,-51.77,-51.25,0,*64
1511809677.66,55218,9.19,72952.0,-17.45,-51.77,-51.19,0,*64
1511809678.9,55219,9.19,72954.0,-17.47,-51.99,-51.41,0,*6A
1511809680.14,55220,9.19,72952.5,-17.47,-52.07,-51.55,0,*61
1511809681.38,55221,9.19,72956.5,-17.47,-51.99,-51.41,0,*61
1511809682.65,55222,9.19,72954.5,-17.45,-51.77,-51.33,0,*65
1511809683.9,55223,9.19,72954.5,-17.47,-51.63,-51.05,0,*66
1511809685.15,55224,9.19,72956.0,-17.47,-51.47,-51.11,0,*62
1511809686.37,55225,9.19,72958.3,-17.47,-51.77,-51.11,0,*60
1511809687.59,55226,9.19,72952.8,-17.47,-51.77,-51.11,0,*63
1511809688.83,55227,9.19,72952.8,-17.47,-51.63,-51.11,0,*67
1511809690.08,55228,9.19,72952.8,-17.47,-51.63,-51.11,0,*68
1511809691.33,55229,9.19,72954.5,-17.45,-51.69,-51.19,0,*69
1511809692.55,55230,9.19,72954.5,-17.47,-51.77,-51.11,0,*64
1511809693.8,55231,9.19,72952.3,-17.45,-51.69,-51.19,0,*60
1511809695.05,55232,9.19,72954.0,-17.47,-51.77,-51.25,0,*61
1511809696.28,55233,9.19,72952.3,-17.47,-51.55,-50.89,0,*67
1511809697.52,55234,9.19,72954.0,-17.47,-51.11,-50.61,0,*66
1511809698.79,55235,9.19,72956.8,-17.45,-51.55,-50.97,0,*6C